Weather History for San Jose Tobias Bolanos, Costa Rica

Change the Weather History Date:

Thursday, August 23, 2012

  Actual Average Record
Temperature  
Mean Temperature 75 °F -  
Max Temperature 82 °F 78 °F 82 °F (1997)
Min Temperature 68 °F 67 °F 62 °F (2013)
Cooling Degree Days 10    
Growing Degree Days 25 (Base 50)    
Moisture  
Dew Point 66 °F    
Average Humidity 81    
Maximum Humidity 100    
Minimum Humidity 54    
Precipitation  
Precipitation 0.00 in - - ()
Sea Level Pressure  
Sea Level Pressure 29.96 in    
Wind  
Wind Speed 8 mph ()    
Max Wind Speed 14 mph    
Max Gust Speed -    
Visibility 5.5 miles    
Events Fog , Rain , Thunderstorm    
Averages and records for this station are not official NWS values.
T = Trace of Precipitation, MM = Missing Value Source: Averaged Metar Reports

Daily Weather History Graph

Daily Weather History Graph

Search for Another Location

Airport:

Trip Planner

Search our weather history database for the weather conditions in past years. The results will help you decide how hot, cold, wet, or windy it might be!

Date:

Astronomy

Aug. 23, 2012 Rise Set
Actual Time 5:27 AM CST 5:50 PM CST
Civil Twilight 5:06 AM CST 6:11 PM CST
Nautical Twilight 4:41 AM CST 6:36 PM CST
Astronomical Twilight 4:15 AM CST 7:01 PM CST
Moon 10:48 AM CST (8/23) 10:46 PM CST (8/23)
Length of Visible Light 13h 05m
Length of Day
12h 22m
Waxing Crescent, 41% of the Moon is Illuminated
Aug 23
Waxing Crescent
Aug 24
First Quarter
Aug 31
Full
Sep 8
Last Quarter
Sep 15
New

Hourly Weather History & Observations

Time (CST) Temp. Heat Index Dew Point Humidity Pressure Visibility Wind Dir Wind Speed Gust Speed Precip Events Conditions
6:00 AM 68.0 °F - 60.8 °F 78% 29.98 in 6.2 mi East 10.4 mph - N/A   Scattered Clouds
7:00 AM 69.8 °F - 60.8 °F 73% 29.99 in 6.2 mi East 9.2 mph - N/A   Mostly Cloudy
8:00 AM 73.4 °F - 62.6 °F 69% 30.00 in 6.2 mi ESE 11.5 mph - N/A   Mostly Cloudy
9:00 AM 77.0 °F - 62.6 °F 61% 30.00 in 6.2 mi East 13.8 mph - N/A   Mostly Cloudy
10:00 AM 78.8 °F - 60.8 °F 54% 3.00 in 6.2 mi ENE 11.5 mph - N/A   Mostly Cloudy
11:00 AM 80.6 °F 81.8 °F 62.6 °F 54% 29.99 in 6.2 mi ENE 12.7 mph - N/A   Scattered Clouds
12:00 PM 82.4 °F 83.9 °F 64.4 °F 54% 29.96 in 6.2 mi East 11.5 mph - N/A   Scattered Clouds
12:35 PM 82.4 °F 85.4 °F 68.0 °F 62% 29.95 in 6.2 mi WNW 5.8 mph - N/A Rain Rain
1:00 PM 77.0 °F - 68.0 °F 74% 29.95 in 6.2 mi WSW 5.8 mph - N/A Rain Rain
1:35 PM 73.4 °F - 68.0 °F 83% 29.94 in 6.2 mi West 8.1 mph - N/A Rain Rain Showers
2:00 PM 73.4 °F - 69.8 °F 88% 29.94 in 3.7 mi West 8.1 mph - N/A Rain , Thunderstorm Rain Showers
2:09 PM 71.6 °F - 68.0 °F 88% 29.94 in 0.9 mi West 8.1 mph - N/A Rain , Thunderstorm Rain Showers
2:37 PM 68.0 °F - 66.2 °F 94% 29.94 in 6.2 mi West 6.9 mph - N/A Rain , Thunderstorm Rain Showers
3:00 PM 68.0 °F - 68.0 °F 100% 29.94 in 6.2 mi West 4.6 mph - N/A Rain Rain
3:32 PM 69.8 °F - 68.0 °F 94% 29.94 in 6.2 mi ENE 2.3 mph - N/A Rain Rain
4:00 PM 69.8 °F - 69.8 °F 100% 29.94 in 6.2 mi ENE 2.3 mph - N/A   Mostly Cloudy
4:28 PM 69.8 °F - 68.0 °F 94% 29.94 in 5.0 mi NW 3.5 mph - N/A Fog Mostly Cloudy
5:00 PM 69.8 °F - 68.0 °F 94% 29.95 in 5.0 mi WNW 5.8 mph - N/A Rain Light Rain
5:10 PM 68.0 °F - 68.0 °F 100% 29.94 in 4.3 mi WNW 5.8 mph - N/A Rain Light Rain
6:00 PM 68.0 °F - 68.0 °F 100% 29.96 in 5.0 mi WNW 3.5 mph - N/A Fog Fog